Date,TemperatureHighF,TemperatureAvgF,TemperatureLowF,DewpointHighF,DewpointAvgF,DewpointLowF,HumidityHigh,HumidityAvg,HumidityLow,PressureMaxIn,PressureMinIn,WindSpeedMaxMPH,WindSpeedAvgMPH,GustSpeedMaxMPH,PrecipitationSumIn
2013-8-1,88,74,64,67,64,54,91,72,38,30.09,30.03,12,1,12,0.00
2013-8-2,86,69,58,70,61,51,90,75,59,30.08,29.95,13,1,13,0.61
2013-8-3,89,75,64,67,62,55,90,67,41,30.21,30.03,9,0,9,0.00
2013-8-4,85,68,57,61,55,51,83,65,42,30.31,30.20,9,0,9,0.00
2013-8-5,67,61,54,55,53,49,83,74,63,30.20,30.12,2,0,2,0.00
2013-8-6,85,75,64,71,67,60,91,78,63,30.02,29.97,11,1,11,0.33
2013-8-7,84,72,0,72,65,-8,92,82,64,30.06,29.92,6,0,6,0.00
2013-8-8,87,73,62,65,60,58,86,67,44,30.13,30.05,6,0,7,0.00
2013-8-9,86,73,60,64,60,54,85,65,42,30.13,30.07,9,0,9,0.00
2013-8-10,92,80,66,65,60,53,81,53,33,30.24,30.12,10,1,10,0.00
2013-8-11,78,65,60,60,55,53,79,70,49,30.24,30.21,6,0,6,0.00
2013-8-13,80,70,62,60,52,48,86,56,41,30.23,30.04,10,1,10,0.00
2013-8-14,81,65,52,54,49,44,75,57,35,30.31,30.23,6,0,6,0.00
2013-8-15,79,65,49,58,52,43,83,65,45,30.27,30.20,10,1,10,0.00
2013-8-16,88,70,56,63,56,50,86,65,40,30.29,30.22,6,0,6,0.00
2013-8-17,90,73,56,62,56,50,84,58,35,30.34,30.27,2,0,6,0.00
2013-8-18,91,72,57,63,57,51,80,60,36,30.32,30.22,5,0,5,0.00
2013-8-19,90,72,57,64,58,52,84,64,37,30.23,30.15,8,1,8,0.00
2013-8-20,91,77,63,68,64,58,87,66,47,30.25,30.18,9,1,9,0.00
2013-8-21,92,77,66,69,65,61,87,68,46,30.23,30.10,13,1,13,0.00
2013-8-22,81,71,67,70,66,63,89,84,62,30.25,30.11,16,2,16,0.69
2013-8-23,92,76,65,66,63,57,90,66,39,30.29,30.21,9,0,9,0.00
2013-8-24,84,78,66,61,60,57,78,55,44,30.39,30.36,7,1,7,0.00
2013-8-25,91,90,89,67,67,66,48,46,45,30.31,30.29,9,3,9,0.00
2013-8-26,88,84,78,73,70,66,71,64,59,30.27,30.14,16,4,16,0.00
2013-8-27,82,79,77,71,70,69,77,74,69,30.15,30.09,22,6,22,0.00
2013-8-28,89,78,72,75,70,67,87,77,61,30.15,30.02,8,1,8,0.00
2013-8-29,93,77,64,74,68,61,90,75,53,30.20,30.11,6,0,6,0.00
2013-8-30,94,79,67,75,69,63,90,73,51,30.12,29.85,14,2,14,0.00
2013-8-31,89,76,69,73,67,64,84,75,58,29.99,29.90,6,0,6,0.00